TimeCST,TemperatureF,Dew PointF,Humidity,Sea Level PressureIn,VisibilityMPH,Wind Direction,Wind SpeedMPH,Gust SpeedMPH,PrecipitationIn,Events,Conditions,WindDirDegrees,DateUTC
12:55 AM,27.0,26.6,99,29.90,10.0,Calm,Calm,-,N/A,,Clear,0,2012-12-19 06:55:00
1:55 AM,27.1,26.8,99,29.92,10.0,Calm,Calm,-,N/A,,Clear,0,2012-12-19 07:55:00
2:55 AM,27.5,27.1,99,29.93,10.0,Calm,Calm,-,N/A,,Clear,0,2012-12-19 08:55:00
3:55 AM,29.8,29.7,99,29.91,10.0,NE,3.5,-,N/A,,Overcast,50,2012-12-19 09:55:00
4:55 AM,30.7,30.4,99,29.90,10.0,NE,5.8,-,N/A,,Mostly Cloudy,50,2012-12-19 10:55:00
5:55 AM,30.0,29.7,99,29.90,10.0,NNE,5.8,-,N/A,,Clear,30,2012-12-19 11:55:00
6:55 AM,29.3,29.1,99,29.92,10.0,NE,3.5,-,N/A,,Mostly Cloudy,50,2012-12-19 12:55:00
7:55 AM,30.2,30.0,99,29.93,7.0,ENE,6.9,-,N/A,,Overcast,70,2012-12-19 13:55:00
8:55 AM,31.5,31.3,99,29.93,9.0,ENE,4.6,-,N/A,,Overcast,70,2012-12-19 14:55:00
9:55 AM,34.0,32.4,94,29.92,10.0,ENE,8.1,-,N/A,,Overcast,70,2012-12-19 15:55:00
10:55 AM,35.2,32.5,90,29.91,10.0,ESE,4.6,-,N/A,,Overcast,120,2012-12-19 16:55:00
11:55 AM,36.5,32.2,84,29.88,10.0,ENE,6.9,-,N/A,,Clear,70,2012-12-19 17:55:00
12:12 PM,37.4,32.0,81,29.87,10.0,ENE,11.5,-,N/A,Rain,Light Rain,70,2012-12-19 18:12:00
12:28 PM,37.4,32.0,81,29.86,10.0,ENE,8.1,-,N/A,,Overcast,60,2012-12-19 18:28:00
12:55 PM,37.2,32.5,83,29.84,10.0,ENE,10.4,-,0.00,,Overcast,60,2012-12-19 18:55:00
1:14 PM,37.4,32.0,81,29.83,10.0,ENE,9.2,-,N/A,Rain,Light Rain,60,2012-12-19 19:14:00
1:55 PM,36.7,34.3,91,29.80,8.0,NE,11.5,18.4,0.00,Rain,Light Rain,40,2012-12-19 19:55:00
2:35 PM,36.7,34.3,91,29.75,5.0,NE,10.4,-,0.00,Rain-Snow,Light Rain,50,2012-12-19 20:35:00
2:46 PM,35.6,33.8,93,29.78,2.5,NNE,16.1,-,N/A,Rain-Snow,Rain,30,2012-12-19 20:46:00
2:55 PM,34.7,34.5,99,29.79,2.5,NE,12.7,-,0.08,Rain-Snow,Rain,40,2012-12-19 20:55:00
3:04 PM,33.8,33.8,100,29.79,2.0,NE,13.8,-,N/A,Rain-Snow,Light Rain,40,2012-12-19 21:04:00
3:25 PM,33.8,33.8,100,29.78,3.0,NE,11.5,19.6,N/A,Rain,Light Rain,40,2012-12-19 21:25:00
3:34 PM,33.8,33.8,100,29.77,4.0,NNE,12.7,-,N/A,Rain,Light Rain,30,2012-12-19 21:34:00
3:36 PM,33.8,33.8,100,29.78,5.0,NNE,12.7,-,N/A,Rain,Light Rain,30,2012-12-19 21:36:00
3:48 PM,33.8,33.8,100,29.75,5.0,NNE,12.7,-,N/A,Rain,Light Rain,30,2012-12-19 21:48:00
3:49 PM,33.8,33.8,100,29.78,4.0,NNE,13.8,-,N/A,Rain,Light Rain,30,2012-12-19 21:49:00
3:55 PM,34.7,34.5,99,29.78,4.0,NNE,12.7,19.6,0.08,Rain,Light Rain,30,2012-12-19 21:55:00
4:02 PM,35.6,33.8,93,29.78,4.0,NNE,13.8,20.7,N/A,Rain,Light Rain,20,2012-12-19 22:02:00
4:52 PM,33.8,33.8,100,29.77,2.5,NNE,12.7,18.4,N/A,,Overcast,20,2012-12-19 22:52:00
4:55 PM,34.2,34.0,99,29.77,2.5,NNE,13.8,18.4,0.05,,Overcast,20,2012-12-19 22:55:00
5:03 PM,33.8,33.8,100,29.76,3.0,NNE,11.5,20.7,N/A,Snow,Light Snow,20,2012-12-19 23:03:00
5:21 PM,33.8,33.8,100,29.75,4.0,NNE,18.4,24.2,N/A,Snow,Light Snow,20,2012-12-19 23:21:00
5:37 PM,33.8,33.8,100,29.75,2.5,NNE,17.3,25.3,N/A,Snow,Light Snow,20,2012-12-19 23:37:00
5:55 PM,33.4,33.3,99,29.75,2.0,NNE,16.1,21.9,0.07,Snow,Light Snow,20,2012-12-19 23:55:00
5:58 PM,32.0,32.0,100,29.83,2.5,NNE,16.1,21.9,N/A,Snow,Light Snow,30,2012-12-19 23:58:00
6:03 PM,33.8,33.8,100,29.74,3.0,North,16.1,24.2,N/A,Snow,Light Snow,10,2012-12-20 00:03:00
6:10 PM,33.8,33.8,100,29.73,4.0,NNE,18.4,27.6,N/A,Snow,Light Snow,30,2012-12-20 00:10:00
6:22 PM,33.8,33.8,100,29.74,4.0,NNE,12.7,26.5,N/A,Snow,Light Snow,20,2012-12-20 00:22:00
6:29 PM,33.8,33.8,100,29.74,2.5,NNE,16.1,23.0,N/A,Snow,Light Snow,30,2012-12-20 00:29:00
6:38 PM,33.8,33.8,100,29.78,2.5,North,6.9,23.0,N/A,Snow,Light Snow,10,2012-12-20 00:38:00
6:41 PM,33.8,33.8,100,29.78,3.0,North,6.9,20.7,N/A,Snow,Light Snow,10,2012-12-20 00:41:00
6:45 PM,33.8,33.8,100,29.78,2.5,North,9.2,-,N/A,Snow,Light Snow,10,2012-12-20 00:45:00
6:49 PM,33.8,33.8,100,29.77,2.0,NNE,13.8,18.4,N/A,Snow,Light Snow,20,2012-12-20 00:49:00
6:50 PM,33.8,33.8,100,29.77,1.8,NNE,15.0,20.7,N/A,Snow,Light Snow,20,2012-12-20 00:50:00
6:55 PM,32.9,32.7,99,29.76,1.2,North,13.8,24.2,0.01,Snow,Light Snow,10,2012-12-20 00:55:00
7:15 PM,32.0,32.0,100,29.78,1.2,North,13.8,23.0,N/A,Snow,Light Snow,10,2012-12-20 01:15:00
7:22 PM,32.0,32.0,100,29.78,2.0,North,15.0,21.9,N/A,Snow,Light Snow,10,2012-12-20 01:22:00
7:23 PM,32.0,32.0,100,29.78,2.0,NNE,12.7,20.7,N/A,Snow,Light Snow,20,2012-12-20 01:23:00
7:25 PM,32.0,32.0,100,29.78,3.0,North,12.7,20.7,N/A,Snow,Light Snow,10,2012-12-20 01:25:00
7:33 PM,33.8,32.0,93,29.78,4.0,NNE,12.7,19.6,N/A,Snow,Light Snow,20,2012-12-20 01:33:00
7:55 PM,33.1,32.7,99,29.78,5.0,North,11.5,-,0.01,Snow,Light Snow,10,2012-12-20 01:55:00
8:13 PM,33.8,32.0,93,29.78,4.0,North,12.7,21.9,N/A,Snow,Light Snow,10,2012-12-20 02:13:00
8:16 PM,33.8,32.0,93,29.78,3.0,NNE,11.5,21.9,N/A,Snow,Light Snow,20,2012-12-20 02:16:00
8:26 PM,33.8,32.0,93,29.78,2.5,NNE,16.1,19.6,N/A,Snow,Light Snow,20,2012-12-20 02:26:00
8:27 PM,33.8,32.0,93,29.78,3.0,NNE,16.1,19.6,N/A,Snow,Light Snow,20,2012-12-20 02:27:00
8:28 PM,33.8,32.0,93,29.78,2.5,NNE,15.0,19.6,N/A,Snow,Light Snow,20,2012-12-20 02:28:00
8:36 PM,33.8,32.0,93,29.78,2.0,NNE,16.1,27.6,N/A,Snow,Light Snow,20,2012-12-20 02:36:00
8:38 PM,32.0,32.0,100,29.77,1.8,North,19.6,27.6,N/A,Snow,Light Snow,10,2012-12-20 02:38:00
8:43 PM,32.0,32.0,100,29.77,1.5,North,12.7,27.6,N/A,Snow,Light Snow,10,2012-12-20 02:43:00
8:49 PM,32.0,32.0,100,29.78,2.0,North,11.5,23.0,N/A,Snow,Light Snow,10,2012-12-20 02:49:00
8:55 PM,32.9,32.7,99,29.77,2.0,North,12.7,21.9,0.01,Snow,Light Snow,10,2012-12-20 02:55:00
9:15 PM,33.8,32.0,93,29.77,2.0,NNE,15.0,24.2,N/A,Snow,Light Snow,20,2012-12-20 03:15:00
9:55 PM,32.9,32.7,99,29.76,2.5,North,18.4,27.6,0.00,Snow,Light Snow,360,2012-12-20 03:55:00
9:56 PM,33.8,32.0,93,29.76,2.5,North,16.1,27.6,N/A,Snow,Light Snow,360,2012-12-20 03:56:00
10:38 PM,33.8,32.0,93,29.75,1.8,North,19.6,28.8,N/A,Snow,Light Snow,360,2012-12-20 04:38:00
10:55 PM,32.9,32.7,99,29.75,1.8,North,20.7,28.8,0.01,Snow,Light Snow,350,2012-12-20 04:55:00
11:15 PM,32.0,32.0,100,29.76,1.5,NNW,19.6,32.2,N/A,,Overcast,340,2012-12-20 05:15:00
11:23 PM,32.0,32.0,100,29.76,1.8,North,23.0,35.7,N/A,Snow,Light Snow,350,2012-12-20 05:23:00
11:25 PM,32.0,32.0,100,29.76,2.0,North,21.9,35.7,N/A,Snow,Light Snow,350,2012-12-20 05:25:00
11:42 PM,32.0,30.2,93,29.76,2.5,North,24.2,38.0,N/A,,Overcast,350,2012-12-20 05:42:00
11:55 PM,31.5,30.9,98,29.76,2.0,North,23.0,36.8,0.00,Snow,Light Snow,350,2012-12-20 05:55:00
11:58 PM,32.0,30.2,93,29.76,2.0,North,23.0,33.4,N/A,,Overcast,350,2012-12-20 05:58:00